TimeCDT,TemperatureF,Dew PointF,Humidity,Sea Level PressureIn,VisibilityMPH,Wind Direction,Wind SpeedMPH,Gust SpeedMPH,PrecipitationIn,Events,Conditions,WindDirDegrees,DateUTC
12:53 AM,72.0,69.1,91,30.06,10.0,South,6.9,-,N/A,,Clear,180,2012-10-05 05:53:00
1:53 AM,70.0,69.1,97,30.06,10.0,South,3.5,-,N/A,,Clear,180,2012-10-05 06:53:00
2:49 AM,68.0,66.2,94,30.08,8.0,Calm,Calm,-,N/A,,Mostly Cloudy,0,2012-10-05 07:49:00
2:53 AM,68.0,66.2,94,30.08,8.0,Calm,Calm,-,N/A,,Mostly Cloudy,0,2012-10-05 07:53:00
3:53 AM,70.0,68.0,93,30.04,7.0,Calm,Calm,-,N/A,Fog,Patches of Fog,0,2012-10-05 08:53:00
4:53 AM,70.0,68.0,93,30.04,6.0,SSE,3.5,-,N/A,Fog,Patches of Fog,150,2012-10-05 09:53:00
5:08 AM,69.8,69.8,100,30.07,5.0,SSE,4.6,-,N/A,Fog,Patches of Fog,150,2012-10-05 10:08:00
5:53 AM,70.0,69.1,97,30.05,2.0,SSE,3.5,-,N/A,Fog,Patches of Fog,160,2012-10-05 10:53:00
6:10 AM,69.8,69.8,100,30.08,1.0,SSE,3.5,-,N/A,,Mostly Cloudy,160,2012-10-05 11:10:00
6:19 AM,69.8,69.8,100,30.09,0.5,SSE,4.6,-,N/A,,Mostly Cloudy,150,2012-10-05 11:19:00
6:32 AM,69.8,69.8,100,30.09,0.2,SSE,3.5,-,N/A,,Mostly Cloudy,150,2012-10-05 11:32:00
6:41 AM,69.8,69.8,100,30.09,0.2,SSE,4.6,-,N/A,Fog,Fog,150,2012-10-05 11:41:00
6:53 AM,70.0,70.0,100,30.06,0.2,SSE,3.5,-,N/A,Fog,Fog,150,2012-10-05 11:53:00
7:06 AM,69.8,69.8,100,30.09,0.2,SSE,4.6,-,N/A,Fog,Fog,150,2012-10-05 12:06:00
7:29 AM,71.6,69.8,94,30.09,0.2,SE,4.6,-,N/A,Fog,Fog,130,2012-10-05 12:29:00
7:53 AM,71.1,70.0,96,30.07,0.2,SSE,3.5,-,N/A,Fog,Fog,150,2012-10-05 12:53:00
8:19 AM,71.6,69.8,94,30.10,0.2,SSE,3.5,-,N/A,Fog,Fog,150,2012-10-05 13:19:00
8:53 AM,72.0,71.1,97,30.08,0.2,SSE,5.8,-,N/A,,Overcast,150,2012-10-05 13:53:00
9:11 AM,71.6,71.6,100,30.10,4.0,South,5.8,-,N/A,,Overcast,180,2012-10-05 14:11:00
9:53 AM,75.0,71.1,87,30.09,7.0,South,11.5,17.3,N/A,,Overcast,180,2012-10-05 14:53:00
10:13 AM,75.2,71.6,89,30.11,8.0,South,10.4,-,N/A,,Overcast,170,2012-10-05 15:13:00
10:53 AM,80.1,70.0,71,30.08,10.0,South,15.0,20.7,N/A,,Mostly Cloudy,180,2012-10-05 15:53:00
11:24 AM,80.6,68.0,65,30.11,10.0,South,13.8,-,N/A,,Scattered Clouds,180,2012-10-05 16:24:00
11:53 AM,81.0,68.0,65,30.07,10.0,South,15.0,20.7,N/A,,Scattered Clouds,180,2012-10-05 16:53:00
12:53 PM,82.9,68.0,60,30.04,10.0,South,13.8,-,N/A,,Scattered Clouds,190,2012-10-05 17:53:00
1:53 PM,84.9,68.0,57,30.01,10.0,South,12.7,20.7,N/A,,Partly Cloudy,180,2012-10-05 18:53:00
2:53 PM,87.1,66.9,51,29.98,10.0,South,12.7,-,N/A,,Partly Cloudy,180,2012-10-05 19:53:00
3:53 PM,88.0,66.0,48,29.95,10.0,South,9.2,-,N/A,,Partly Cloudy,190,2012-10-05 20:53:00
4:53 PM,88.0,66.0,48,29.94,10.0,South,10.4,-,N/A,,Partly Cloudy,180,2012-10-05 21:53:00
5:53 PM,87.1,64.9,48,29.93,10.0,SSW,11.5,-,N/A,,Partly Cloudy,200,2012-10-05 22:53:00
6:53 PM,82.0,66.0,58,29.94,10.0,South,4.6,-,N/A,,Partly Cloudy,180,2012-10-05 23:53:00
7:53 PM,75.0,66.0,73,29.94,10.0,South,3.5,-,N/A,,Partly Cloudy,170,2012-10-06 00:53:00
8:53 PM,73.0,66.0,79,29.95,10.0,SSW,3.5,-,N/A,,Partly Cloudy,200,2012-10-06 01:53:00
9:53 PM,72.0,66.0,81,29.96,10.0,South,5.8,-,N/A,,Clear,170,2012-10-06 02:53:00
10:53 PM,72.0,66.9,84,29.97,10.0,South,5.8,-,N/A,,Clear,180,2012-10-06 03:53:00
11:53 PM,73.9,66.9,79,29.97,10.0,South,6.9,-,N/A,,Partly Cloudy,180,2012-10-06 04:53:00